UAL1981 KLAX-KEWR

Flight info

Callsign UAL1981
Flight time N/A
Altitude 39000
Route ORCKA5 LAS J146 DVC DCT HBU DCT MCK DCT OVR DCT DSM DCT EVOTE DCT NELLS DCT KEEHO J584 SLT FQM3
Aircraft B78X/M-V/N

Departure

Time 2026-04-26 18:22
Airport Los Angeles International Airport (KLAX)

Arrival

Time N/A
Airport Newark Liberty International Airport (KEWR)
Time Latitude Longitude Altitude Speed Heading
2026-04-26 17:50 33.94037 -118.39905 126 ft 0 kts 355°
2026-04-26 18:13 33.94022 -118.39904 127 ft 4 kts 358°
2026-04-26 18:13 33.94004 -118.39903 131 ft 4 kts
2026-04-26 18:13 33.93991 -118.39904 131 ft 4 kts 19°
2026-04-26 18:14 33.93972 -118.39921 131 ft 4 kts 66°
2026-04-26 18:14 33.93967 -118.39942 126 ft 3 kts 83°
2026-04-26 18:14 33.93966 -118.39945 127 ft 7 kts 83°
2026-04-26 18:17 33.93970 -118.39907 126 ft 8 kts 83°
2026-04-26 18:18 33.93946 -118.39814 130 ft 0 kts 155°
2026-04-26 18:18 33.93906 -118.39732 131 ft 0 kts 84°
2026-04-26 18:18 33.93910 -118.39695 129 ft 9 kts 82°
2026-04-26 18:18 33.93924 -118.39587 130 ft 17 kts 81°
2026-04-26 18:19 33.93941 -118.39408 127 ft 26 kts 84°
2026-04-26 18:19 33.93966 -118.39160 128 ft 34 kts 83°
2026-04-26 18:19 33.93988 -118.38890 131 ft 24 kts 94°
2026-04-26 18:19 33.93985 -118.38869 130 ft 0 kts 100°
2026-04-26 18:20 33.93989 -118.38810 131 ft 0 kts 71°
2026-04-26 18:20 33.93997 -118.38804 130 ft 6 kts 82°
2026-04-26 18:21 33.94023 -118.38583 128 ft 34 kts 83°
2026-04-26 18:21 33.94035 -118.38369 128 ft 0 kts 98°
2026-04-26 18:21 33.93949 -118.38361 131 ft 1 kts 264°
2026-04-26 18:21 33.93948 -118.38373 131 ft 0 kts 264°
2026-04-26 18:22 33.93936 -118.38493 128 ft 38 kts 263°
2026-04-26 18:22 33.93857 -118.39216 134 ft 136 kts 262°
2026-04-26 18:22 33.93704 -118.40623 625 ft 194 kts 263°
2026-04-26 18:22 33.93655 -118.42216 2199 ft 200 kts 267°
2026-04-26 18:23 33.93606 -118.43959 3175 ft 213 kts 269°
2026-04-26 18:23 33.93366 -118.45761 3804 ft 215 kts 257°
2026-04-26 18:23 33.92964 -118.47519 4383 ft 221 kts 259°
2026-04-26 18:23 33.92685 -118.49310 4890 ft 226 kts 262°
2026-04-26 18:24 33.92430 -118.51156 4995 ft 223 kts 262°
2026-04-26 18:24 33.91865 -118.52883 4976 ft 227 kts 233°
2026-04-26 18:24 33.90452 -118.53795 5114 ft 235 kts 193°
2026-04-26 18:24 33.88798 -118.53392 5366 ft 252 kts 154°
2026-04-26 18:25 33.87624 -118.51790 5616 ft 264 kts 115°
2026-04-26 18:25 33.87464 -118.49658 5942 ft 263 kts 75°
2026-04-26 18:25 33.88234 -118.47697 6342 ft 261 kts 54°
2026-04-26 18:25 33.89425 -118.46075 6738 ft 255 kts 38°
2026-04-26 18:26 33.90805 -118.44702 7080 ft 258 kts 35°
2026-04-26 18:26 33.92219 -118.43345 7428 ft 265 kts 34°
2026-04-26 18:26 33.93631 -118.41854 7686 ft 275 kts 40°
2026-04-26 18:26 33.94992 -118.40196 8153 ft 288 kts 44°
2026-04-26 18:27 33.96253 -118.38280 8641 ft 295 kts 52°
2026-04-26 18:27 33.97375 -118.36152 9154 ft 300 kts 55°
2026-04-26 18:27 33.98516 -118.34013 9668 ft 301 kts 53°
2026-04-26 18:27 33.99702 -118.31948 10145 ft 304 kts 51°
2026-04-26 18:28 34.00897 -118.29883 10602 ft 300 kts 51°
2026-04-26 18:28 34.02087 -118.27784 11063 ft 301 kts 52°
2026-04-26 18:28 34.03276 -118.25675 11531 ft 306 kts 51°
2026-04-26 18:28 34.04465 -118.23574 12021 ft 308 kts 51°
2026-04-26 18:29 34.05670 -118.21452 12494 ft 303 kts 51°
2026-04-26 18:29 34.06865 -118.19344 12964 ft 308 kts 51°
2026-04-26 18:29 34.08069 -118.17213 13471 ft 313 kts 51°
2026-04-26 18:29 34.09290 -118.15053 13948 ft 308 kts 51°
2026-04-26 18:30 34.10524 -118.12873 14407 ft 316 kts 51°
2026-04-26 18:30 34.11758 -118.10687 14885 ft 320 kts 51°
2026-04-26 18:30 34.13010 -118.08467 15333 ft 318 kts 51°
2026-04-26 18:30 34.14276 -118.06225 15845 ft 323 kts 52°
2026-04-26 18:31 34.15552 -118.03961 16431 ft 333 kts 52°
2026-04-26 18:31 34.16849 -118.01657 17022 ft 333 kts 52°
2026-04-26 18:31 34.18170 -117.99310 17614 ft 338 kts 52°
2026-04-26 18:31 34.19502 -117.96943 18248 ft 346 kts 52°
2026-04-26 18:32 34.20840 -117.94559 18780 ft 343 kts 53°
2026-04-26 18:32 34.22198 -117.92139 19309 ft 348 kts 52°
2026-04-26 18:32 34.23530 -117.89770 19865 ft 349 kts 52°
2026-04-26 18:32 34.24912 -117.87316 20436 ft 355 kts 52°
2026-04-26 18:33 34.26296 -117.84836 21009 ft 359 kts 53°
2026-04-26 18:33 34.27703 -117.82321 21594 ft 361 kts 53°
2026-04-26 18:33 34.29123 -117.79790 22192 ft 367 kts 53°
2026-04-26 18:33 34.30549 -117.77237 22790 ft 367 kts 53°
2026-04-26 18:34 34.31994 -117.74653 23412 ft 372 kts 53°
2026-04-26 18:34 34.33450 -117.72046 23973 ft 376 kts 53°
2026-04-26 18:34 34.34927 -117.69411 24503 ft 379 kts 51°
2026-04-26 18:34 34.36527 -117.66861 25043 ft 384 kts 51°
2026-04-26 18:35 34.38064 -117.64196 25593 ft 388 kts 52°
2026-04-26 18:35 34.39614 -117.61497 26158 ft 392 kts 51°
2026-04-26 18:35 34.41233 -117.58815 26735 ft 397 kts 50°